Back to catalog

STARLINK-2050

AliveCommunicationsVLEO
NORAD 47357·PAYLOAD·🇺🇸 United States

Launched Jan 20, 2021 from Cape Canaveral Space Force Station

Loading…

Next Passes (next 24 hours)

TLE

FreshSource: CelesTrak SupGP

Epoch: Sep 14, 2026, 22:05 UTC

1 47357C 21005J   26257.92062500  .00044852  00000+0  14430-2 0  2573
2 47357  53.1580 262.2452 0001176 102.0945  48.3767 15.31665248    16

Track STARLINK-2050 in real time with AllMySat

Download on the App Store